カタログに戻る

THORAD AGENA D DEB

運用中VLEO
NORAD 4938·DEBRIS·🇺🇸 United States

打ち上げ Sep 30, 1969 から Vandenberg Space Force Base

Loading…

次のパス

TLE

Source: Space-Track
1 04938U 69082HJ  26218.23046254  .00003728  00000-0  34893-3 0  9994
2 04938  70.1191 270.2898 0011875 335.0628  24.9955 14.94877184981162

AllMySatでTHORAD AGENA D DEBをリアルタイム追跡

Download on the App Store